Content
SEND FEEDBACK

Daily
Averages
Monthly
Summary
United States of America

ST. LOUIS, MISSOURI


Home > North America > United States > Missouri
Elevation: 535 feet     Latitude: 38 45N     Longitude: 090 22W

WEATHER
 
SELECT A DAY
Number of Records: 201,261;   Date Range: 1/1/95 - 12/19/14
 
SHARE

PRINT THIS DATA

[ ← Previous Day ]
WEATHER ALMANAC - SEPTEMBER 24, 2013
[ Next Day → ]
[ °C ]   °F
Weather ElementAverageHighLow
Temperature68.5 °F82.9 °F (3:54 pm)52 °F (4:54 am)
Dewpoint58.4 °F64.9 °F (8:54 pm)48.9 °F (1:54 am)
Humidity72 %93 % (4:54 am)45 % (2:54 pm)
Barometer29.84 in29.93 in (1:54 am)29.76 in (5:54 pm)
Wind Speed3.6 mph9.2 mph (2:54 pm)
Wind Gust19.6 mph (2:54 pm)
Weather ElementAverage
Visibility9.9 mi
Wind DirectionENE (73.1 °)

Weather ElementTotal
Precipitation0.08 in
Cooling Degree Days2.5 (Base 65)
Growing Degree Days17.5 (Base 50)
Averaged from 26 records on September 24, 2013
WEATHER CONDITIONS BREAKOUT
WIND DIRECTION BREAKOUT
WEATHER BY HOUR - SEPTEMBER 24, 2013
[ °C ]   °F
Local TimeTemperatureDewpointHumidityBarometerVisibilityWind DirectionWind SpeedGust SpeedPrecipitationEventsConditions
1:54 AM57.0 °F48.9 °F74 %29.93 in10.0 miCalmClear
2:54 AM57.0 °F50.0 °F77 %29.93 in10.0 miCalmClear
3:54 AM54.0 °F50.0 °F86 %29.92 in10.0 miEast (80°)3.5 mphMostly Cloudy
4:54 AM52.0 °F50.0 °F93 %29.92 in10.0 miCalmClear
5:54 AM53.1 °F50.0 °F89 %29.91 in10.0 miEast (80°)3.5 mphClear
6:54 AM55.0 °F51.1 °F86 %29.92 in10.0 miEast (80°)3.5 mphMostly Cloudy
7:54 AM57.0 °F53.1 °F87 %29.91 in10.0 miEast (90°)3.5 mphMostly Cloudy
8:54 AM63.0 °F55.0 °F75 %29.90 in10.0 miESE (120°)6.9 mphClear
9:54 AM64.0 °F55.9 °F75 %29.89 in10.0 miESE (110°)4.6 mphMostly Cloudy
10:54 AM70.0 °F57.9 °F65 %29.88 in10.0 miVariable3.5 mphOvercast
11:54 AM72.0 °F59.0 °F64 %29.87 in10.0 miEast (100°)4.6 mphScattered Clouds
12:54 PM77.0 °F60.1 °F56 %29.84 in10.0 miSE (130°)6.9 mphMostly Cloudy
1:54 PM81.0 °F60.1 °F49 %29.81 in10.0 miESE (120°)8.1 mphMostly Cloudy
2:54 PM82.0 °F59.0 °F45 %29.79 in10.0 miSE (140°)9.2 mph19.6 mphMostly Cloudy
3:54 PM82.9 °F60.1 °F46 %29.78 in10.0 miVariable6.9 mphMostly Cloudy
4:54 PM81.0 °F59.0 °F47 %29.77 in10.0 miSE (130°)5.8 mphScattered Clouds
5:54 PM81.0 °F61.0 °F50 %29.76 in10.0 miESE (120°)4.6 mphPartly Cloudy
6:54 PM77.0 °F62.1 °F60 %29.76 in10.0 miSE (130°)3.5 mphMostly Cloudy
7:54 PM73.9 °F64.0 °F71 %29.77 in10.0 miSE (130°)5.8 mphClear
8:54 PM73.0 °F64.9 °F76 %29.77 in10.0 miSE (140°)5.8 mphClear
9:40 PM71.6 °F64.4 °F78 %29.80 in10.0 miCalmThunderstormMostly Cloudy
9:54 PM72.0 °F64.9 °F78 %29.79 in10.0 miCalmOvercast
10:19 PM71.6 °F64.4 °F78 %29.81 in10.0 miSSW (200°)3.5 mphThunderstormOvercast
10:54 PM68.0 °F64.0 °F87 %29.81 in10.0 miCalm0.08 inRain-ThunderstormLight Rain
11:17 PM68.0 °F64.4 °F88 %29.81 in10.0 miCalm0.00 inRainLight Rain
11:54 PM66.9 °F64.9 °F93 %29.80 in7.0 miCalm0.00 inOvercast
Hourly data recorded from KSUS, located miles away from St. Louis, Missouri







STORIES FROM OUR PARTNERS